Simultaneous Nadir Overpasses (SNOs) Predictions

Prediction of SNOs between GOES-15 and METOP-B Satellite Orbit:

Table of predicted SNOs for the next 14.0 days since TLE Epoch: 6/5/2021
Index Date Time (GOES-15) GOES-15 Lat,Lon METOP-B Lat,Lon Distance(km) Time Diff (sec)
1 06/05/2021 06:19:45 0.08,-128.46 -0.67,-131.92 393.03 80
2 06/06/2021 05:56:26 0.08,-128.46 0.41,-126.91 176.20 80
3 06/07/2021 18:15:18 -0.08,-128.49 0.59,-131.48 340.63 80
4 06/08/2021 17:57:20 -0.08,-128.49 -0.54,-126.49 228.93 80
5 06/10/2021 06:16:21 0.09,-128.48 -0.49,-131.08 296.94 80
6 06/11/2021 05:53:02 0.09,-128.47 0.59,-126.08 271.39 80
7 06/12/2021 18:11:54 -0.09,-128.48 0.42,-130.64 247.54 80
8 06/13/2021 17:53:55 -0.09,-128.47 -0.72,-125.66 321.15 80
9 06/15/2021 06:12:57 0.10,-128.45 -0.30,-130.25 205.01 80
10 06/16/2021 05:49:38 0.10,-128.44 0.84,-125.27 362.68 80
11 06/17/2021 18:08:30 -0.11,-128.44 0.18,-129.83 157.81 80
12 06/18/2021 17:50:31 -0.11,-128.43 -0.90,-124.82 410.47 80
